Flag for France Weather past 2 weeks in Rennes, France

Now
50 °F

Overcast.


Feels Like: 47 °F
Forecast: 45 / 55 °F
Wind: 7 mph from Southwest

Location: Rennes Airport

Current Time: Dec 22, 2014 at 12:28:31 AM

Latest Report: Dec 22, 2014 at 12:00 AM


Visibility: N/A

Pressure: 30.48 "Hg

Humidity: 76%

Dew point: 43 °F

Location of RennesLocation

Historic Weather in Rennes — Graph

°F

Rennes temperature yesterday

Maximum temperature yesterday: 50 °F (at 12:00 PM)
Minimum temperature yesterday: 46 °F (at 5:00 AM)
Average temperature yesterday: 49 °F

Past Weeks' High & Low Weather Summary

 TemperatureHumidityPressure
High57 °F (Dec 12, 1:00 PM)100% (Dec 6, 11:30 PM)30.60 "Hg (Dec 6, 11:30 PM)
Low27 °F (Dec 14, 7:00 AM)63% (Dec 11, 1:00 PM)29.59 "Hg (Dec 12, 1:00 PM)
Average46 °F86%30.15 "Hg
* Reported Dec 6 11:00 PM — Dec 21 11:30 PM, Rennes, Weather by CustomWeather, © 2014

Note: Actual official high and low records may vary slightly from our data, if they occured in-between our weather recording intervals... More about our weather records

Advertising

Rennes weather history for previous 24 hours

 ConditionsComfort  
Time TempWeatherWind HumidityBarometerVisibility
11:30 PM
Dec 21
50 °FOvercast.3 mph76%30.48 "HgN/A
10:30 PM50 °FOvercast.7 mph76%30.48 "HgN/A
10:00 PM50 °FOvercast.9 mph76%30.48 "HgN/A
9:30 PM50 °FOvercast.8 mph71%30.51 "HgN/A
9:00 PM50 °FOvercast.6 mph71%30.51 "HgN/A
8:30 PM50 °FOvercast.6 mph71%30.51 "HgN/A
8:00 PM50 °FOvercast.6 mph71%30.51 "HgN/A
7:30 PM50 °FOvercast.6 mph71%30.51 "HgN/A
7:00 PM50 °FOvercast.5 mph71%30.51 "HgN/A
6:30 PM50 °FOvercast.7 mph71%30.51 "HgN/A
6:00 PM50 °FOvercast.8 mph71%30.51 "HgN/A
5:30 PM50 °FOvercast.9 mph71%30.51 "HgN/A
5:00 PM50 °FOvercast.9 mph71%30.51 "HgN/A
4:30 PM50 °FOvercast.8 mph71%30.51 "HgN/A
4:00 PM50 °FOvercast.9 mph71%30.51 "HgN/A
3:30 PM50 °FOvercast.8 mph71%30.51 "HgN/A
3:00 PM50 °FOvercast.8 mph71%30.51 "HgN/A
2:30 PM50 °FOvercast.12 mph71%30.54 "HgN/A
2:00 PM50 °FOvercast.10 mph71%30.54 "HgN/A
1:30 PM50 °FOvercast.8 mph76%30.54 "HgN/A
1:00 PM50 °FOvercast.7 mph71%30.57 "HgN/A
12:30 PM50 °FOvercast.7 mph71%30.57 "HgN/A
12:00 PM50 °FOvercast.6 mph71%30.57 "HgN/A
11:30 AM48 °FOvercast.6 mph76%30.57 "HgN/A
11:00 AM48 °FOvercast.5 mph76%30.60 "HgN/A
10:30 AM48 °FOvercast.6 mph76%30.57 "HgN/A
10:00 AM46 °FOvercast.5 mph76%30.57 "HgN/A
9:30 AM46 °FOvercast.5 mph76%30.57 "HgN/A
9:00 AM46 °FOvercast.6 mph76%30.57 "HgN/A
8:30 AM46 °FOvercast.3 mph76%30.57 "HgN/A
8:00 AM46 °FOvercast.2 mph76%30.57 "HgN/A
7:30 AM46 °FOvercast.3 mph76%30.57 "HgN/A
7:00 AM46 °FOvercast.5 mph76%30.57 "HgN/A
6:30 AM46 °FOvercast.6 mph76%30.57 "HgN/A
6:00 AM46 °FOvercast.5 mph76%30.57 "HgN/A
5:30 AM48 °FOvercast.7 mph71%30.57 "HgN/A
5:00 AM46 °FOvercast.5 mph76%30.60 "HgN/A
4:30 AM48 °FOvercast.3 mph76%30.60 "HgN/A
3:30 AM48 °FOvercast.6 mph76%30.60 "HgN/A
3:00 AM48 °FOvercast.3 mph76%30.60 "HgN/A
2:30 AM48 °FOvercast.5 mph76%30.60 "HgN/A
2:00 AM48 °FOvercast.3 mph76%30.60 "HgN/A
1:30 AM48 °FOvercast.5 mph76%30.60 "HgN/A
1:00 AM48 °FOvercast.5 mph76%30.60 "HgN/A
12:30 AM48 °FOvercast.6 mph76%30.60 "HgN/A
12:00 AM48 °FOvercast.3 mph76%30.60 "HgN/A
Weather by CustomWeather, © 2014

See weather overviewHow to use our weather pages